Big Bear City, CA

8:00 AM PDT on June 20, 2019 (GMT -0700)
Big Bear City

Weather History for KL35 - May, 2019

Change the Weather History Date:

Wednesday, May 22, 2019

  Actual Average (KBUO) Record (KBUO)
Temperature  
Mean Temperature 36 °F -  
Max Temperature 41 °F 77 °F 98 °F (2000)
Min Temperature 32 °F 52 °F 46 °F (1999)
Degree Days  
Heating Degree Days 28    
Moisture  
Dew Point 28 °F    
Average Humidity 81    
Maximum Humidity 100    
Minimum Humidity 49    
Precipitation  
Precipitation 0.05 in - - ()
Sea Level Pressure  
Sea Level Pressure 29.72 in    
Wind  
Wind Speed 10 mph (WSW)    
Max Wind Speed 20 mph    
Max Gust Speed 28 mph    
Visibility 9 miles    
Events Rain , Snow    
Averages and records for this station are not official NWS values.
T = Trace of Precipitation, MM = Missing Value Source: NWS Daily Summary

Daily Weather History Graph

Daily Weather History Graph

Search for Another Location

Airport or City:

Astronomy

May. 22, 2019 Rise Set
Actual Time 5:40 AM PDT 7:47 PM PDT
Civil Twilight 5:12 AM PDT 8:15 PM PDT
Nautical Twilight 4:38 AM PDT 8:50 PM PDT
Astronomical Twilight 4:01 AM PDT 9:27 PM PDT
Moon 11:33 PM PDT (5/22) 8:54 AM PDT (5/22)
Length of Visible Light 15h 03m
Length of Day
14h 06m
Waning Gibbous, 84% of the Moon is Illuminated
May 22
Waning Gibbous
May 26
Last Quarter
Jun 3
New
Jun 9
First Quarter
Jun 17
Full

Hourly Weather History & Observations

Time (PDT) Temp. Windchill Dew Point Humidity Pressure Visibility Wind Dir Wind Speed Gust Speed Precip Events Conditions
12:15 AM 33.8 °F 27.0 °F 26.6 °F 75% 29.74 in 10.0 mi WSW 8.1 mph - N/A   Overcast
12:35 AM 33.8 °F 27.7 °F 26.6 °F 75% 29.73 in 10.0 mi SW 6.9 mph - N/A   Overcast
12:55 AM 33.8 °F 26.4 °F 28.4 °F 81% 29.73 in 10.0 mi WSW 9.2 mph - N/A   Overcast
1:15 AM 33.8 °F 23.9 °F 28.4 °F 81% 29.72 in 10.0 mi West 15.0 mph - N/A   Overcast
1:35 AM 33.8 °F 23.5 °F 26.6 °F 75% 29.72 in 10.0 mi West 16.1 mph 23.0 mph N/A   Overcast
1:55 AM 33.8 °F 23.5 °F 28.4 °F 81% 29.71 in 10.0 mi West 16.1 mph 21.9 mph N/A   Overcast
2:15 AM 32.0 °F 20.1 °F 26.6 °F 80% 29.71 in 10.0 mi West 19.6 mph 26.5 mph N/A   Overcast
2:35 AM 32.0 °F 20.8 °F 26.6 °F 80% 29.71 in 10.0 mi West 17.3 mph 27.6 mph N/A   Mostly Cloudy
2:55 AM 32.0 °F 20.8 °F 26.6 °F 80% 29.70 in 10.0 mi West 17.3 mph 24.2 mph N/A   Scattered Clouds
3:15 AM 32.0 °F 21.6 °F 26.6 °F 80% 29.69 in 10.0 mi WSW 15.0 mph 21.9 mph N/A   Scattered Clouds
3:35 AM 32.0 °F 21.6 °F 26.6 °F 80% 29.67 in 10.0 mi WSW 15.0 mph 24.2 mph N/A   Scattered Clouds
3:55 AM 32.0 °F 21.2 °F 26.6 °F 80% 29.67 in 10.0 mi West 16.1 mph 26.5 mph N/A   Clear
4:15 AM 32.0 °F 20.5 °F 26.6 °F 80% 29.67 in 10.0 mi West 18.4 mph 23.0 mph N/A   Clear
4:35 AM 32.0 °F 22.1 °F 26.6 °F 80% 29.67 in 10.0 mi West 13.8 mph - N/A   Clear
4:55 AM 32.0 °F 23.0 °F 26.6 °F 80% 29.68 in 10.0 mi West 11.5 mph 19.6 mph N/A   Scattered Clouds
5:15 AM 32.0 °F 23.6 °F 26.6 °F 80% 29.67 in 10.0 mi West 10.4 mph 17.3 mph N/A   Mostly Cloudy
5:35 AM 32.0 °F 24.2 °F 26.6 °F 80% 29.66 in 10.0 mi WSW 9.2 mph 18.4 mph N/A   Scattered Clouds
5:55 AM 32.0 °F 24.2 °F 26.6 °F 80% 29.67 in 10.0 mi WSW 9.2 mph - N/A   Mostly Cloudy
6:15 AM 32.0 °F 25.6 °F 26.6 °F 80% 29.68 in 10.0 mi WSW 6.9 mph - N/A   Overcast
6:35 AM 32.0 °F 23.0 °F 26.6 °F 80% 29.68 in 10.0 mi West 11.5 mph 16.1 mph N/A   Mostly Cloudy
6:55 AM 32.0 °F 21.6 °F 26.6 °F 80% 29.69 in 10.0 mi West 15.0 mph 18.4 mph N/A   Scattered Clouds
7:15 AM 32.0 °F 22.5 °F 26.6 °F 80% 29.69 in 10.0 mi West 12.7 mph - N/A   Mostly Cloudy
7:35 AM 32.0 °F 24.2 °F 24.8 °F 75% 29.70 in 10.0 mi West 9.2 mph - N/A   Overcast
7:55 AM 32.0 °F 24.2 °F 26.6 °F 80% 29.70 in 10.0 mi WSW 9.2 mph - N/A   Overcast
8:15 AM 32.0 °F 24.8 °F 26.6 °F 80% 29.70 in 10.0 mi West 8.1 mph - N/A   Overcast
8:35 AM 32.0 °F 24.2 °F 26.6 °F 80% 29.70 in 10.0 mi West 9.2 mph - N/A   Overcast
8:55 AM 33.8 °F 25.8 °F 26.6 °F 75% 29.70 in 10.0 mi West 10.4 mph - N/A   Overcast
9:15 AM 33.8 °F 25.3 °F 26.6 °F 75% 29.70 in 10.0 mi West 11.5 mph - N/A   Overcast
9:35 AM 35.6 °F 28.6 °F 26.6 °F 70% 29.70 in 10.0 mi West 9.2 mph - N/A   Overcast
9:55 AM 35.6 °F 27.1 °F 24.8 °F 65% 29.70 in 10.0 mi West 12.7 mph 17.3 mph N/A   Mostly Cloudy
10:15 AM 35.6 °F 28.0 °F 26.6 °F 70% 29.70 in 10.0 mi West 10.4 mph 16.1 mph N/A   Overcast
10:35 AM 33.8 °F 27.0 °F 26.6 °F 75% 29.71 in 10.0 mi West 8.1 mph 18.4 mph N/A   Overcast
10:55 AM 37.4 °F 30.3 °F 24.8 °F 60% 29.71 in 10.0 mi West 10.4 mph 17.3 mph N/A   Overcast
11:15 AM 39.2 °F 32.0 °F 23.0 °F 52% 29.70 in 10.0 mi WSW 11.5 mph 18.4 mph N/A   Scattered Clouds
11:35 AM 37.4 °F 30.8 °F 23.0 °F 56% 29.71 in 10.0 mi WSW 9.2 mph - N/A   Mostly Cloudy
11:55 AM 39.2 °F 30.8 °F 21.2 °F 49% 29.70 in 10.0 mi West 15.0 mph 20.7 mph N/A   Overcast
12:15 PM 37.4 °F 29.8 °F 23.0 °F 56% 29.71 in 10.0 mi West 11.5 mph - N/A   Overcast
12:35 PM 41.0 °F 36.4 °F 24.8 °F 53% 29.70 in 10.0 mi WSW 6.9 mph 17.3 mph N/A   Overcast
12:55 PM 41.0 °F 35.2 °F 23.0 °F 49% 29.70 in 10.0 mi WSW 9.2 mph 18.4 mph N/A   Mostly Cloudy
1:15 PM 41.0 °F 33.1 °F 26.6 °F 57% 29.70 in 10.0 mi West 15.0 mph 20.7 mph N/A   Overcast
1:35 PM 41.0 °F 37.1 °F 24.8 °F 53% 29.70 in 10.0 mi SW 5.8 mph - N/A   Mostly Cloudy
1:55 PM 41.0 °F 34.7 °F 24.8 °F 53% 29.70 in 10.0 mi West 10.4 mph 16.1 mph N/A   Mostly Cloudy
2:15 PM 37.4 °F 31.4 °F 26.6 °F 65% 29.70 in 10.0 mi West 8.1 mph 19.6 mph N/A   Overcast
2:35 PM 37.4 °F 33.8 °F 26.6 °F 65% 29.70 in 10.0 mi SSW 4.6 mph - N/A   Overcast
2:55 PM 37.4 °F 30.3 °F 28.4 °F 70% 29.70 in 10.0 mi West 10.4 mph - N/A   Overcast
3:15 PM 39.2 °F 32.0 °F 28.4 °F 65% 29.71 in 10.0 mi WSW 11.5 mph 18.4 mph N/A   Overcast
3:35 PM 37.4 °F 29.8 °F 28.4 °F 70% 29.71 in 10.0 mi West 11.5 mph 21.9 mph N/A   Mostly Cloudy
3:55 PM 35.6 °F 28.6 °F 32.0 °F 87% 29.71 in 3.0 mi WSW 9.2 mph 19.6 mph N/A Rain Light Rain
4:15 PM 33.8 °F 25.3 °F 32.0 °F 93% 29.72 in 2.5 mi WSW 11.5 mph - N/A Snow Light Snow
4:35 PM 33.8 °F 27.0 °F 32.0 °F 93% 29.71 in 5.0 mi WSW 8.1 mph 18.4 mph N/A   Overcast
4:55 PM 32.0 °F 26.4 °F 32.0 °F 100% 29.72 in 0.8 mi WSW 5.8 mph - N/A Snow Light Snow
5:15 PM 32.0 °F 28.7 °F 32.0 °F 100% 29.72 in 0.8 mi SW 3.5 mph - 0.01 in Snow Light Snow
5:35 PM 32.0 °F - 32.0 °F 100% 29.72 in 2.5 mi Calm Calm - 0.01 in Snow Light Snow
5:55 PM 32.0 °F - 32.0 °F 100% 29.73 in 1.0 mi Calm Calm - 0.01 in Snow Light Snow
6:15 PM 32.0 °F - 32.0 °F 100% 29.73 in 0.2 mi Calm Calm - 0.03 in Snow Snow
6:35 PM 32.0 °F - 32.0 °F 100% 29.74 in 5.0 mi Calm Calm - 0.04 in Snow Light Snow
6:55 PM 32.0 °F 28.7 °F 32.0 °F 100% 29.75 in 10.0 mi NW 3.5 mph - 0.04 in   Overcast
7:15 PM 32.0 °F - 30.2 °F 93% 29.75 in 10.0 mi Calm Calm - N/A   Overcast
7:35 PM 32.0 °F 27.5 °F 32.0 °F 100% 29.76 in 10.0 mi WNW 4.6 mph - N/A   Overcast
7:55 PM 32.0 °F 27.5 °F 32.0 °F 100% 29.76 in 10.0 mi North 4.6 mph - N/A   Overcast
8:15 PM 32.0 °F - 32.0 °F 100% 29.76 in 3.0 mi Calm Calm - N/A Snow Light Snow
8:35 PM 32.0 °F 24.8 °F 32.0 °F 100% 29.78 in 10.0 mi West 8.1 mph - N/A   Overcast
8:55 PM 33.8 °F - 32.0 °F 93% 29.78 in 10.0 mi Calm Calm - N/A   Overcast
9:15 PM 33.8 °F - 32.0 °F 93% 29.79 in 10.0 mi Calm Calm - N/A   Overcast
9:35 PM 32.0 °F - 32.0 °F 100% 29.79 in 4.0 mi Calm Calm - N/A Snow Light Snow
9:55 PM 32.0 °F - 32.0 °F 100% 29.80 in 2.5 mi Calm Calm - N/A Snow Light Snow
10:15 PM 32.0 °F 28.7 °F 32.0 °F 100% 29.80 in 10.0 mi WSW 3.5 mph - N/A   Mostly Cloudy
10:35 PM 32.0 °F 27.5 °F 32.0 °F 100% 29.80 in 10.0 mi SSW 4.6 mph - N/A   Mostly Cloudy
10:55 PM 32.0 °F - 32.0 °F 100% 29.80 in 10.0 mi Calm Calm - N/A   Scattered Clouds
11:15 PM 32.0 °F - 32.0 °F 100% 29.80 in 10.0 mi Calm Calm - N/A   Scattered Clouds
11:35 PM 32.0 °F 28.7 °F 32.0 °F 100% 29.81 in 10.0 mi WSW 3.5 mph - N/A   Overcast
11:55 PM 32.0 °F 25.6 °F 32.0 °F 100% 29.81 in 10.0 mi WSW 6.9 mph - N/A   Overcast